www.pogodaiklimat.ru

Погода и климат >> Архив погоды >> Португалия >> Faro


ПОГОДА в Faro

  • Прогноз погоды в Faro
  • Монитор погоды в Faro
  • Климат города

АРХИВ ПОГОДЫ в Faro

Время (UTC), дата Ветер
(напр.,м/с)
 
Видим.   Явления Облачность Т
(С)
Тd
(С)
f
(%)
Тe
(С)
Тes
(С)
Комфортность P
(гПа)
Po
(гПа)
Тmin
(С)
Tmax
(С)
R
(мм)
R24
(мм)
S
(см)
01 8.08 СЗ 2
{5}
н/о н/о +22.3 +12.6 54 +25 +25 комфорт 1012.9 1012.0
02 8.08 СЗ 3 н/о н/о +21.1 +13.1 60 +23 +23 комфорт 1012.9 1012.0
03 8.08 СЗ 4
{6}
н/о н/о +20.0 +13.7 67 +22 +22 комфорт 1012.6 1011.6
04 8.08 СЗ 4 н/о н/о +19.9 +14.0 69 +22 +22 комфорт 1012.0 1011.0
05 8.08 СЗ 2
{5}
н/о н/о +19.8 +13.4 67 +22 +22 комфорт 1012.2 1011.3
06 8.08 З 1 н/о н/о +19.7 +13.8 69 +23 +23 комфорт 1012.9 1012.0 +19.0
07 8.08 З 2 н/о н/о +21.1 +13.8 63 +24 +24 комфорт 1013.4 1012.4
08 8.08 СЗ 2 н/о н/о +22.6 +13.4 56 +26 +26 жарко 1013.8 1012.9
09 8.08 СЗ 3
{5}
н/о н/о +24.8 +13.8 50 +27 +27 жарко 1014.1 1013.2
10 8.08 СЗ 4-7
{7}
н/о н/о +27.1 +13.8 44 +29 +29 жарко 1014.1 1013.2
11 8.08 З 7 н/о н/о +27.1 +15.3 48 +30 +30 душно 1014.1 1013.2
12 8.08 З 8
{12}
20 км ясно +25.3 +16.6 59 +29 +32 душно 1014.0 1013.0
13 8.08 З 8 н/о н/о +26.5 +17.1 56 +30 +30 душно 1013.6 1012.7
14 8.08 З 9 н/о н/о +26.7 +16.9 55 +30 +30 душно 1013.2 1012.3
15 8.08 З 8
{12}
н/о н/о +28.5 +15.6 46 +32 +32 душно 1012.7 1011.7
16 8.08 З 8 н/о н/о +32.7 +10.4 25 +32 +32 жарко 1012.4 1011.5
17 8.08 СЗ 8
{12}
н/о н/о +29.2 +10.5 31 +29 +29 жарко 1012.4 1011.5
18 8.08 СЗ 6-9
{10}
20 км 4/4 2000 м
[Sc Ci sp]
+28.1 +13.1 40 +30 +30 жарко 1012.7 1011.8 +32.8
19 8.08 СЗ 6-10
{11}
н/о н/о +26.9 +13.8 44 +29 +29 жарко 1013.3 1012.3
20 8.08 СЗ 6
{9}
н/о н/о +25.1 +15.6 56 +28 +28 жарко 1013.9 1013.0
21 8.08 СЗ 5-7
{10}
н/о н/о +23.2 +15.8 63 +28 +28 душно 1015.3 1014.4
22 8.08 СЗ 5
{9}
н/о н/о +22.4 +15.8 66 +26 +26 жарко 1015.9 1014.9
23 8.08 СЗ 5
{9}
н/о н/о +21.8 +15.7 68 +25 +25 комфорт 1016.2 1015.2
00 9.08 СЗ 3-6
{7}
20 км ясно +21.1 +15.6 71 +24 +24 комфорт 1016.3 1015.4
01 9.08 СЗ 4-7
{7}
н/о н/о +21.2 +16.2 73 +25 +25 комфорт 1016.4 1015.5
02 9.08 СЗ 5
{8}
н/о н/о +20.8 +15.9 74 +24 +24 комфорт 1016.3 1015.3
03 9.08 СЗ 4-8
{9}
н/о н/о +20.6 +15.8 74 +24 +24 комфорт 1016.3 1015.3
04 9.08 СЗ 4
{7}
н/о н/о +20.6 +15.6 73 +24 +24 комфорт 1016.3 1015.3
05 9.08 СЗ 4-6
{7}
н/о н/о +20.4 +15.8 75 +23 +23 комфорт 1016.8 1015.9
06 9.08 СЗ 1
{6}
20 км 1/1 600 м
[Sc]
+20.1 +16.0 77 +24 +24 комфорт 1017.5 1016.6 +19.7
07 9.08 СЗ 2 н/о н/о +21.3 +15.8 71 +25 +25 комфорт 1018.1 1017.2
08 9.08 С 5-7
{9}
н/о н/о +23.0 +15.5 63 +27 +27 душно 1018.3 1017.4
09 9.08 С 5-8
{10}
н/о н/о +23.3 +15.3 61 +28 +28 душно 1018.4 1017.5
10 9.08 С 4-7
{7}
н/о н/о +25.4 +14.6 51 +28 +28 жарко 1018.4 1017.5
11 9.08 С 3-6
{9}
н/о н/о +26.9 +13.8 44 +29 +29 жарко 1018.4 1017.4
12 9.08 СЗ 6 н/о н/о +29.6 +12.8 36 +31 +31 жарко 1017.9 1017.0
13 9.08 С 3-7
{10}
н/о н/о +30.5 +10.5 29 +30 +30 жарко 1017.7 1016.8
14 9.08 З 7 н/о н/о +25.8 +15.8 54 +29 +29 душно 1017.5 1016.5
15 9.08 З 8 н/о н/о +25.9 +16.9 58 +30 +30 душно 1017.0 1016.1
16 9.08 З 7 н/о н/о +25.9 +16.4 56 +29 +29 душно 1016.6 1015.6
17 9.08 З 7 н/о н/о +25.7 +16.8 58 +29 +29 душно 1016.2 1015.3
18 9.08 ЮЗ 2
{9}
н/о н/о +26.1 +16.3 55 +30 +30 душно 1016.0 1015.1 +31.1
19 9.08 СЗ 3-6
{6}
н/о н/о +28.6 +13.0 38 +30 +30 жарко 1016.4 1015.5
20 9.08 СЗ 6 н/о н/о +25.7 +13.4 47 +28 +28 жарко 1016.7 1015.8
21 9.08 СЗ 5
{9}
н/о н/о +23.9 +13.9 54 +26 +26 жарко 1017.7 1016.8
22 9.08 СЗ 5 н/о н/о +23.7 +12.5 49 +26 +26 жарко 1017.9 1016.9
23 9.08 СЗ 5-9
{9}
н/о н/о +23.3 +12.4 50 +26 +26 жарко 1018.2 1017.3
00 10.08 С 5-8
{9}
н/о н/о +23.2 +12.0 49 +26 +26 жарко 1018.2 1017.2
01 10.08 С 2
{7}
н/о н/о +22.9 +11.9 50 +25 +25 комфорт 1018.0 1017.1
02 10.08 С 2
{5}
н/о н/о +22.8 +11.9 50 +25 +25 комфорт 1017.6 1016.7
03 10.08 С 2
{6}
н/о н/о +22.1 +11.7 52 +24 +24 комфорт 1017.6 1016.7
04 10.08 С 2 н/о н/о +22.2 +11.2 50 +24 +24 комфорт 1017.4 1016.4
05 10.08 штиль 0 н/о н/о +19.0 +14.0 73 +20 +20 1017.5 1016.6
06 10.08 н/о н/о +18.8 +11.1 61 1017.7 1016.8 +18.5
07 10.08 С 2 н/о н/о +20.9 +13.2 61 +24 +24 комфорт 1018.1 1017.2
08 10.08 З 2 н/о н/о +23.8 +13.2 51 +26 +26 жарко 1018.5 1017.5
09 10.08 Ю 2 н/о н/о +24.8 +11.7 44 +26 +26 жарко 1018.6 1017.6
10 10.08 -6
{6}
н/о н/о +25.8 +11.2 40 1018.9 1018.0
11 10.08 ЮЗ 3
{5}
н/о н/о +25.9 +12.5 43 +27 +27 жарко 1019.0 1018.1
12 10.08 ЮЗ 4
{7}
н/о н/о +27.4 +10.5 35 +28 +28 жарко 1018.9 1018.0
13 10.08 ЮЗ 4
{7}
н/о н/о +28.7 +10.8 33 +29 +29 жарко 1018.8 1017.9
14 10.08 ЮЗ 4
{6}
н/о н/о +27.7 +14.4 44 +30 +30 жарко 1018.6 1017.7
15 10.08 З 4
{6}
н/о н/о +28.5 +14.8 43 +31 +31 душно 1018.0 1017.1
16 10.08 З 5 н/о н/о +29.2 +15.4 43 +32 +32 душно 1017.8 1016.9
17 10.08 З 6 н/о н/о +29.8 +15.0 41 +32 +32 душно 1017.6 1016.7
18 10.08 З 7 25 км ясно +27.2 +14.0 44 +29 +30 жарко 1017.4 1016.5 +30.7
19 10.08 З 6
{9}
н/о н/о +24.9 +15.3 55 +28 +28 жарко 1017.3 1016.4
20 10.08 СЗ 5 н/о н/о +25.7 +14.3 49 +28 +28 жарко 1017.6 1016.7
21 10.08 СЗ 4-5
{6}
н/о н/о +26.7 +11.7 39 +28 +28 жарко 1018.4 1017.5
22 10.08 С 3
{5}
н/о н/о +27.2 +10.6 35 +28 +28 жарко 1018.7 1017.8
23 10.08 С 3
{6}
н/о н/о +26.6 +10.3 36 +27 +27 жарко 1018.8 1017.9
00 11.08 С 4
{7}
н/о н/о +26.2 +10.9 38 +27 +27 жарко 1018.9 1017.9
01 11.08 С 5
{8}
н/о н/о +26.3 +9.9 36 +27 +27 жарко 1018.5 1017.6
02 11.08 С 3
{6}
н/о н/о +26.3 +10.7 38 +27 +27 жарко 1018.3 1017.4
03 11.08 СВ 3
{6}
20 км ясно +26.2 +10.5 37 +27 +27 жарко 1017.8 1016.9
04 11.08 З 1 н/о н/о +22.8 +13.9 57 +26 +26 жарко 1017.9 1016.9
05 11.08 н/о н/о +20.4 +15.5 73 1018.0 1017.0
06 11.08 20 км ясно +20.8 +16.2 75 1018.6 1017.6 +20.1
07 11.08 В 1 н/о н/о +22.9 +16.5 67 +28 +28 душно 1019.0 1018.1
08 11.08 СВ 1 н/о н/о +26.1 +15.1 51 +29 +29 жарко 1019.3 1018.3
09 11.08 н/о н/о +28.3 +15.4 45 1019.2 1018.3
10 11.08
{5}
н/о н/о +27.3 +18.4 58 1019.5 1018.6
11 11.08 Ю 3
{5}
н/о н/о +28.8 +18.8 55 +34 +34 очень
душно
1019.3 1018.4
12 11.08 С 3
{5}
20 км ясно +29.0 +19.0 55 +34 +50 очень
душно
1018.9 1018.0
13 11.08 С 3-5
{6}
н/о н/о +29.9 +19.9 55 +36 +36 очень
душно
1018.6 1017.7
14 11.08 З 4
{7}
н/о н/о +29.3 +19.1 54 +35 +35 очень
душно
1018.3 1017.4
15 11.08 З 4
{6}
н/о н/о +28.6 +18.6 55 +34 +34 очень
душно
1017.7 1016.8
16 11.08 З 6
{9}
н/о н/о +28.8 +20.1 59 +35 +35 очень
душно
1017.4 1016.5
17 11.08 З 6 н/о н/о +28.9 +21.2 63 +36 +36 очень
душно
1016.7 1015.8
18 11.08 З 6 20 км ясно +28.8 +17.2 50 +33 +33 очень
душно
1016.5 1015.6 +31.0
19 11.08 З 5 н/о н/о +28.2 +15.4 46 +31 +31 душно 1016.6 1015.7
20 11.08 З 5 н/о н/о +25.7 +14.8 51 +28 +28 жарко 1016.6 1015.7
21 11.08 СЗ 3
{6}
н/о н/о +27.4 +11.9 38 +29 +29 жарко 1017.1 1016.2
22 11.08 СЗ 2 н/о н/о +26.8 +8.0 30 +27 +27 жарко 1017.2 1016.2
23 11.08 З 2 н/о н/о +23.5 +11.5 47 +25 +25 комфорт 1017.0 1016.1
00 12.08 З 1 н/о н/о +23.6 +10.9 45 +25 +25 комфорт 1016.7 1015.7
01 12.08 штиль 0 н/о н/о +22.6 +13.9 58 +26 +26 жарко 1016.4 1015.5
02 12.08 н/о н/о +22.8 +13.9 57 1016.2 1015.3
03 12.08 З 2 н/о н/о +21.8 +15.1 66 +25 +25 комфорт 1015.9 1014.9
04 12.08 З 2 н/о н/о +21.5 +14.1 63 +24 +24 комфорт 1015.8 1014.9
05 12.08 С 2 н/о н/о +23.9 +9.3 39 +25 +25 комфорт 1015.7 1014.8
06 12.08 штиль 0 20 км ясно +22.3 +18.9 81 +24 +24 комфорт 1016.0 1015.1 +21.1
07 12.08 В 1 н/о н/о +23.4 +15.9 63 +28 +28 душно 1016.6 1015.7
08 12.08 н/о н/о +26.8 +17.0 55 1017.0 1016.1
09 12.08
{5}
н/о н/о +26.8 +20.6 69 1017.3 1016.3
10 12.08 С 2
{5}
н/о н/о +27.1 +20.7 68 +34 +34 очень
душно
1017.5 1016.6
11 12.08 ЮЗ 3
{5}
н/о н/о +27.8 +20.2 63 +34 +34 очень
душно
1017.3 1016.4
12 12.08 СЗ 4-6
{6}
20 км ясно +27.4 +18.5 58 +32 +45 очень
душно
1017.2 1016.3
13 12.08 СЗ 4
{6}
н/о н/о +27.7 +17.9 55 +32 +32 очень
душно
1017.0 1016.1
14 12.08 СЗ 4
{6}
н/о н/о +28.3 +18.3 55 +33 +33 очень
душно
1016.7 1015.8
15 12.08 З 5 н/о н/о +25.7 +17.8 62 +30 +30 душно 1016.3 1015.3
16 12.08 ЮЗ 4
{6}
н/о н/о +26.3 +15.9 53 +30 +30 душно 1015.9 1014.9
17 12.08 З 3
{5}
н/о н/о +26.7 +13.8 45 +29 +29 жарко 1015.0 1014.1
18 12.08 СЗ 3
{5}
н/о н/о +24.4 +17.8 67 +29 +29 душно 1014.6 1013.7 +28.7
19 12.08 З 4 н/о н/о +24.4 +17.8 67 +29 +29 душно 1014.4 1013.5
20 12.08 СЗ 4
{6}
н/о н/о +28.4 +12.9 38 +30 +30 жарко 1014.5 1013.6
21 12.08 СЗ 4
{7}
н/о н/о +26.7 +15.7 51 +30 +30 душно 1015.3 1014.4
22 12.08 С 3-6
{7}
н/о н/о +26.8 +16.3 53 +30 +30 душно 1015.4 1014.5
23 12.08 С 3
{6}
н/о н/о +26.8 +14.5 47 +29 +29 жарко 1015.3 1014.4
00 13.08 С 1
{5}
н/о н/о +26.0 +14.3 48 +28 +28 жарко 1015.3 1014.4
01 13.08 Ю 1 н/о н/о +22.6 +17.3 72 +27 +27 душно 1015.2 1014.2
02 13.08 СВ 1 н/о н/о +24.7 +14.7 54 +27 +27 жарко 1014.9 1014.0
03 13.08 н/о н/о +22.8 +15.2 62 1015.0 1014.1
04 13.08 СЗ 1 н/о н/о +21.8 +15.6 68 +25 +25 комфорт 1015.0 1014.0
05 13.08 СЗ 1 н/о н/о +20.4 +15.1 72 +24 +24 комфорт 1015.1 1014.2
06 13.08 СЗ 3 20 км ясно +20.2 +15.3 73 +23 +23 комфорт 1015.7 1014.8 +19.8
07 13.08 С 2 н/о н/о +22.1 +16.7 71 +26 +26 душно 1016.3 1015.4
08 13.08 СЗ 3
{5}
н/о н/о +24.5 +16.5 61 +28 +28 душно 1016.7 1015.7
09 13.08
{5}
25 км ясно +26.5 +16.4 54 1017.0 1016.0
10 13.08
{5}
н/о н/о +27.1 +17.1 54 1016.9 1016.0
11 13.08 ЮЗ 3
{7}
н/о н/о +26.6 +16.0 52 +30 +30 душно 1017.1 1016.2
12 13.08 З 4
{7}
н/о н/о +25.1 +17.2 62 +29 +29 душно 1016.7 1015.8
13 13.08 З 4-6
{8}
н/о н/о +25.0 +16.9 61 +29 +29 душно 1016.3 1015.4
14 13.08 З 6 н/о н/о +26.9 +16.4 53 +30 +30 душно 1015.6 1014.7
15 13.08 З 7 н/о н/о +26.8 +16.2 52 +30 +30 душно 1015.1 1014.2
16 13.08 З 8 н/о н/о +25.8 +15.8 54 +29 +29 душно 1014.7 1013.8
17 13.08 З 8 н/о н/о +25.1 +15.9 57 +28 +28 жарко 1014.4 1013.4
18 13.08 З 7 20 км ясно +23.8 +17.2 67 +28 +28 душно 1014.2 1013.2 +28.4
19 13.08 З 4
{8}
н/о н/о +23.3 +17.6 70 +29 +29 душно 1014.1 1013.2
20 13.08 СЗ 4
{6}
н/о н/о +27.1 +13.3 43 +29 +29 жарко 1014.5 1013.6
21 13.08 СЗ 4
{7}
н/о н/о +25.6 +14.2 49 +28 +28 жарко 1015.2 1014.2
22 13.08 СЗ 3
{5}
н/о н/о +24.4 +14.6 54 +27 +27 жарко 1015.5 1014.6
23 13.08 СЗ 2
{5}
н/о н/о +23.6 +14.4 56 +26 +26 жарко 1015.7 1014.8
00 14.08 СЗ 3 н/о н/о +23.1 +14.0 57 +27 +27 душно 1015.8 1014.9
01 14.08 СЗ 3 н/о н/о +22.2 +13.4 57 +25 +25 комфорт 1016.0 1015.1
02 14.08 З 2 н/о н/о +20.9 +12.9 60 +24 +24 комфорт 1015.7 1014.8
03 14.08 З 2 н/о н/о +19.1 +12.0 63 +21 +21 комфорт 1015.6 1014.6
04 14.08 СЗ 2 н/о н/о +19.7 +10.8 56 +22 +22 комфорт 1015.8 1014.9
05 14.08 С 2 н/о н/о +18.9 +10.9 60 +20 +20 1016.2 1015.3
06 14.08 С 2 20 км ясно +19.3 +9.2 52 +21 +21 комфорт 1016.6 1015.6 +18.7
07 14.08 С 2 н/о н/о +20.2 +10.8 55 +22 +22 комфорт 1016.9 1015.9
08 14.08 В 2 н/о н/о +23.1 +11.0 46 +25 +25 комфорт 1017.2 1016.3
09 14.08 н/о н/о +23.7 +14.1 55 1017.6 1016.7
10 14.08 С 3
{5}
н/о н/о +23.3 +15.0 60 +27 +27 душно 1018.0 1017.1
11 14.08 З 4
{7}
н/о н/о +23.5 +16.2 64 +27 +27 душно 1018.3 1017.4
12 14.08 С 3
{6}
20 км ясно +23.7 +17.3 67 +28 +43 душно 1018.1 1017.2
13 14.08 Ю 4-6
{6}
н/о н/о +23.0 +17.2 70 +28 +28 душно 1018.0 1017.0
14 14.08 З 3-5
{6}
н/о н/о +23.2 +17.7 71 +29 +29 душно 1017.5 1016.6
15 14.08 З 4
{6}
н/о н/о +23.2 +16.2 65 +28 +28 душно 1017.2 1016.2
16 14.08 З 4
{7}
н/о н/о +24.7 +15.3 56 +28 +28 душно 1017.0 1016.0
17 14.08 З 4
{6}
н/о н/о +24.0 +17.5 67 +28 +28 душно 1016.5 1015.6
18 14.08 З 5 20 км ясно +23.7 +17.6 69 +28 +28 душно 1015.8 1014.8 +25.3
19 14.08 З 4
{6}
н/о н/о +22.6 +18.1 76 +28 +28 душно 1015.8 1014.9
20 14.08 З 3
{5}
н/о н/о +22.1 +18.5 80 +27 +27 душно 1016.0 1015.0
21 14.08 СЗ 2 20 км ясно +23.0 +18.1 74 +29 +29 очень
душно
1016.4 1015.5
22 14.08 СЗ 3 н/о н/о +23.2 +15.2 61 +27 +27 душно 1016.2 1015.3
23 14.08 З 2 н/о н/о +22.8 +14.9 61 +27 +27 душно 1016.1 1015.2
00 15.08 С 1 н/о н/о +23.4 +15.0 59 +27 +27 душно 1016.1 1015.2

 

Местоположение метеостанции Faro (Португалия): широта 37.02 долгота -7.97 высота над уровнем моря 8 м.

В архиве по умолчанию представлена погода в Faro за последнюю неделю. Архивные данные за месяц целиком и за предыдущие месяцы, начиная с января 2011 года, Вы можете получить, выбрав интересующий диапазон дат из раскрывающегося списка и нажав кнопку "Ввод!".


*Определитесь, кто Вы:
робот инопланетянин человек

Внимание! Время в таблицах - всемирное. Для получения местного времени необходимо прибавить поправку, которая в Faro равна 0 ч.

Смотрите также архив погоды в соседних городах и на ближайших метеорологических станциях:

Погода в Sagres (Португалия) (87 км)
Погода в Huelva (Испания) (97 км)
Погода в Beja (Португалия) (112 км)
Погода в Beja / B. Aerea (Португалия) (117 км)
Погода в Sines (Португалия) (130 км)
Погода в Cadiz Bay (Испания) (163 км)
Погода в Evora (Португалия) (168 км)
Погода в Jerez de la Frontera (Испания) (172 км)
Погода в Sevilla (Испания) (189 км)
Погода в Montijo (Португалия) (209 км)

Пояснения к столбцам:

Ветер - указаны скорость ветра в м/с - средняя за 10 мин, порывы в срок и между сроками (в фигурных скобках) и направление, откуда дует ветер: С - северный, СВ - северо-восточный, В - восточный, ЮВ - юго-восточный, Ю - южный, ЮЗ - юго-западный, З - западный, СЗ - северо-западный.
Видимость - горизонтальная дальность видимости в метрах или километрах. При видимости от 1 до 10 км при отсутствии осадков обычно наблюдается дымка, при ухудшении видимости до 1 км и менее - туман. В сухую погоду видимость может ухудшаться дымом, пылью или мглою.
Явления - указаны атмосферные явления, наблюдавшиеся в срок или в последний час перед сроком; фигурными скобками обозначены явления, наблюдавшиеся между сроками (за 1-3 часа до срока); квадратными скобками обозначены град или гололедные отложения с указанием их диаметра в мм.
Облачность - указаны через наклонную черту общая и нижняя облачность в баллах и высота нижней границы облаков в метрах; квадратными скобками обозначены формы облаков: Ci - перистые, Cs - перисто-слоистые, Cc - перисто-кучевые, Ac - высококучевые, As - высокослоистые, Sc - слоисто-кучевые, Ns - слоисто-дождевые, Cu - кучевые, Cb - кучево-дождевые. Подробнее классификацию облаков см. в Атласе облаков (PDF).
T - Температура воздуха - температура, измеренная на высоте 2 м над землей.
Td - Температура точки росы - температура, при понижении до которой содержащийся в воздухе водяной пар достигнет насыщения.
f - Относительная влажность воздуха - влажноcть воздуха, измеренная на высоте 2 м над землей.
Te - Эффективная температура - температура, которую ощущает одетый по сезону человек в тени. Характеристика душности погоды. При расчете учитывается влияние влажности воздуха и скорости ветра на теплоощущения человека.
Tes - Эффективная температура на солнце - температура, которую ощущает человек, с поправкой на солнечный нагрев. Характеристика знойности погоды. Зависит от высоты солнца над горизонтом, облачности и скорости ветра. Ночью, в пасмурную погоду, а также при ветре 12 м/с и более поправка равна нулю.
P - Атмосферное давление - приведенное к уровню моря атмосферное давление.
Po - Атмосферное давление - измеренное на уровне метеостанции атмосферное давление.
Tmin - Минимальная температура - минимум температуры воздуха на высоте 2 м над землей.
Tmax - Максимальная температура - максимум температуры воздуха на высоте 2 м над землей.
R - Количество осадков - Количество выпавших осадков за период времени, мм. При наведении курсора мыши на число - период времени, за который выпало указанное количество осадков.
R24 - Количество осадков - Количество выпавших осадков за 24 часа, мм.
S - Снежный покров - Высота снежного покрова, см. При наведении курсора мыши на число - состояние снежного покрова и степень покрытия местности в баллах.